Date String (YYYY-MM-DD hh:mm:ss) UTC,Instrument flags,Ambient pressure (hPa),Sample flow (lpm),Bypass flow (lpm),Sample temperature (°C),Ambient temperature (°C),ASC tube jacket temperature (°C),LED temperature (°C),Box temperature (°C),Sample RH (%),Span deviation,Mass concentration (μg/m³),Mass concentration (μg/m³),Mass concentration (μg/m³)
DateTimeUTC,F1_M11,P_M11,Q1_M11,Q2_M11,T1_M11,T2_M11,T3_M11,T4_M11,T5_M11,U1_M11,ZSPAN_M11,X0_M11,X2_M11,X1_M11
2022-06-05 19:00:00,,0819.5,5.00,0.00,29.1,27.6,00.0,37.9,31.0,17.9,0000.0,0012.66,0004.24,0002.86
2022-06-05 19:01:00,,0819.5,5.00,0.00,29.1,27.7,00.0,37.9,31.0,18.0,0000.0,0011.85,0004.26,0002.89
2022-06-05 19:02:00,,0819.4,5.00,0.00,29.1,27.9,00.0,37.9,31.1,19.5,0000.0,0011.69,0004.27,0002.92
2022-06-05 19:03:00,,0819.4,5.00,0.00,29.2,28.0,00.0,38.0,31.1,19.1,0000.0,0011.84,0004.27,0002.94
2022-06-05 19:04:00,,0819.4,5.01,0.00,29.2,28.1,00.0,38.0,31.2,18.8,0000.0,0011.70,0004.26,0002.94
2022-06-05 19:05:00,,0819.4,5.00,0.00,29.2,28.2,00.0,38.0,31.2,19.4,0000.0,0011.70,0004.24,0002.96
2022-06-05 19:06:00,,0819.4,5.00,0.00,29.3,28.4,00.0,38.0,31.3,18.3,0000.0,0012.89,0004.27,0002.97
2022-06-05 19:07:00,,0819.3,5.00,0.00,29.3,28.4,00.0,38.0,31.3,18.3,0000.0,0013.04,0004.26,0002.99
2022-06-05 19:08:00,,0819.3,4.99,0.00,29.3,28.5,00.0,38.1,31.3,19.0,0000.0,0013.81,0004.23,0003.00
2022-06-05 19:09:00,,0819.2,5.01,0.00,29.3,27.9,00.0,38.0,31.2,18.0,0000.0,0013.39,0004.19,0002.99
2022-06-05 19:10:00,,0819.2,4.99,0.00,29.3,27.1,00.0,38.0,31.0,18.5,0000.0,0013.04,0004.17,0003.01
2022-06-05 19:11:00,,0819.2,4.99,0.00,29.2,27.0,00.0,37.9,30.9,20.7,0000.0,0013.21,0004.19,0003.02
2022-06-05 19:12:00,,0819.2,5.00,0.00,29.1,27.0,00.0,37.9,30.9,20.2,0000.0,0012.98,0004.15,0003.00
2022-06-05 19:13:00,,0819.3,5.01,0.00,29.1,27.2,00.0,37.9,30.9,20.3,0000.0,0012.85,0004.12,0002.97
2022-06-05 19:14:00,,0819.3,5.00,0.00,29.1,27.3,00.0,37.9,30.9,18.1,0000.0,0012.32,0004.10,0002.97
2022-06-05 19:15:00,,0819.3,4.99,0.00,29.1,27.5,00.0,37.9,31.0,18.5,0000.0,0011.89,0004.14,0002.96
2022-06-05 19:16:00,,0819.3,4.99,0.00,29.1,27.7,00.0,37.9,31.0,20.3,0000.0,0011.78,0004.19,0002.95
2022-06-05 19:17:00,,0819.3,5.00,0.00,29.1,27.8,00.0,37.9,31.1,19.5,0000.0,0010.61,0004.17,0002.96
2022-06-05 19:18:00,,0819.3,4.99,0.00,29.2,28.0,00.0,38.0,31.1,18.1,0000.0,0010.43,0004.18,0002.95
2022-06-05 19:19:00,,0819.3,5.00,0.00,29.2,28.1,00.0,38.0,31.2,17.8,0000.0,0009.66,0004.18,0002.94
2022-06-05 19:20:00,,0819.2,5.01,0.00,29.2,28.2,00.0,38.0,31.2,19.2,0000.0,0010.07,0004.21,0002.95
2022-06-05 19:21:00,,0819.3,4.99,0.00,29.3,28.3,00.0,38.0,31.3,18.5,0000.0,0010.41,0004.21,0002.94
2022-06-05 19:22:00,,0819.2,5.00,0.00,29.3,28.4,00.0,38.0,31.3,18.6,0000.0,0010.33,0004.17,0002.91
2022-06-05 19:23:00,,0819.2,5.01,0.00,29.3,28.4,00.0,38.1,31.3,19.9,0000.0,0010.38,0004.23,0002.94
2022-06-05 19:24:00,,0819.2,5.00,0.00,29.3,27.8,00.0,38.0,31.2,18.9,0000.0,0011.30,0004.30,0002.95
2022-06-05 19:25:00,,0819.2,5.00,0.00,29.2,27.1,00.0,38.0,30.9,18.1,0000.0,0012.07,0004.36,0002.95
2022-06-05 19:26:00,,0819.2,5.01,0.00,29.2,26.9,00.0,37.9,30.9,19.7,0000.0,0012.51,0004.35,0002.95
2022-06-05 19:27:00,,0819.2,4.99,0.00,29.1,27.0,00.0,37.9,30.9,18.4,0000.0,0012.69,0004.36,0002.95
2022-06-05 19:28:00,,0819.2,5.01,0.00,29.1,27.1,00.0,37.9,30.9,18.1,0000.0,0012.83,0004.37,0002.93
2022-06-05 19:29:00,,0819.2,5.00,0.00,29.1,27.3,00.0,37.9,30.9,18.3,0000.0,0013.01,0004.30,0002.90
2022-06-05 19:30:00,,0819.2,5.00,0.00,29.1,27.5,00.0,37.9,31.0,18.7,0000.0,0012.88,0004.30,0002.90
2022-06-05 19:31:00,,0819.3,4.98,0.00,29.1,27.7,00.0,37.9,31.0,18.7,0000.0,0012.77,0004.35,0002.89
2022-06-05 19:32:00,,0819.2,5.01,0.00,29.1,27.8,00.0,37.9,31.1,19.7,0000.0,0013.10,0004.38,0002.88
2022-06-05 19:33:00,,0819.2,4.99,0.00,29.2,28.0,00.0,38.0,31.1,20.0,0000.0,0013.24,0004.42,0002.92
2022-06-05 19:34:00,,0819.2,5.00,0.00,29.2,28.1,00.0,38.0,31.2,19.1,0000.0,0013.37,0004.39,0002.89
2022-06-05 19:35:00,,0819.2,5.00,0.00,29.2,28.2,00.0,38.0,31.2,19.6,0000.0,0012.84,0004.35,0002.88
2022-06-05 19:36:00,,0819.2,5.01,0.00,29.3,28.3,00.0,38.0,31.3,18.3,0000.0,0012.96,0004.30,0002.87
2022-06-05 19:37:00,,0819.1,5.00,0.00,29.3,28.4,00.0,38.0,31.3,18.7,0000.0,0012.48,0004.32,0002.87
2022-06-05 19:38:00,,0819.2,4.99,0.00,29.3,28.4,00.0,38.1,31.3,19.2,0000.0,0012.30,0004.34,0002.87
2022-06-05 19:39:00,,0819.1,5.00,0.00,29.3,27.7,00.0,38.0,31.1,18.5,0000.0,0012.67,0004.34,0002.87
2022-06-05 19:40:00,,0819.1,5.00,0.00,29.2,27.0,00.0,37.9,30.9,19.4,0000.0,0012.97,0004.37,0002.89
2022-06-05 19:41:00,,0819.1,5.01,0.00,29.2,26.9,00.0,37.9,30.9,21.3,0000.0,0012.97,0004.36,0002.91
2022-06-05 19:42:00,,0819.2,4.99,0.00,29.1,27.0,00.0,37.9,30.9,21.2,0000.0,0013.24,0004.38,0002.91
2022-06-05 19:43:00,,0819.1,5.00,0.00,29.1,27.1,00.0,37.9,30.9,19.6,0000.0,0012.87,0004.38,0002.92
2022-06-05 19:44:00,,0819.0,5.01,0.00,29.1,27.3,00.0,37.9,30.9,18.7,0000.0,0012.49,0004.38,0002.88
2022-06-05 19:45:00,,0819.1,4.99,0.00,29.1,27.5,00.0,37.9,31.0,17.8,0000.0,0012.42,0004.39,0002.87
2022-06-05 19:46:00,,0819.1,5.00,0.00,29.1,27.7,00.0,37.9,31.0,17.9,0000.0,0012.31,0004.40,0002.84
2022-06-05 19:47:00,,0819.1,5.00,0.00,29.1,27.9,00.0,37.9,31.1,18.9,0000.0,0011.31,0004.39,0002.82
2022-06-05 19:48:00,,0819.1,5.02,0.00,29.2,28.0,00.0,38.0,31.1,18.5,0000.0,0011.28,0004.38,0002.82
2022-06-05 19:49:00,,0819.2,5.00,0.00,29.2,28.1,00.0,38.0,31.2,18.1,0000.0,0011.20,0004.30,0002.82
2022-06-05 19:50:00,,0819.2,5.01,0.00,29.2,28.3,00.0,38.0,31.2,18.0,0000.0,0011.12,0004.28,0002.83
2022-06-05 19:51:00,,0819.1,4.99,0.00,29.3,28.4,00.0,38.0,31.3,17.6,0000.0,0010.53,0004.29,0002.83
2022-06-05 19:52:00,,0819.1,5.00,0.00,29.3,28.4,00.0,38.0,31.3,17.9,0000.0,0010.86,0004.33,0002.83
2022-06-05 19:53:00,,0819.1,4.99,0.00,29.3,28.1,00.0,38.0,31.2,18.1,0000.0,0010.63,0004.34,0002.84
2022-06-05 19:54:00,,0819.0,4.99,0.00,29.3,27.5,00.0,37.9,31.1,17.4,0000.0,0010.83,0004.39,0002.85
2022-06-05 19:55:00,,0819.0,5.01,0.00,29.2,27.5,00.0,38.0,31.0,18.0,0000.0,0010.88,0004.42,0002.86
2022-06-05 19:56:00,,0819.0,4.99,0.00,29.2,27.5,00.0,38.0,31.0,19.2,0000.0,0011.08,0004.44,0002.88
2022-06-05 19:57:00,,0819.0,5.00,0.00,29.2,27.6,00.0,38.0,31.1,20.6,0000.0,0011.34,0004.47,0002.94
2022-06-05 19:58:00,,0819.0,5.01,0.00,29.2,27.8,00.0,38.0,31.1,18.0,0000.0,0012.09,0004.51,0002.99
2022-06-05 19:59:00,,0819.0,4.99,0.00,29.2,27.9,00.0,38.0,31.2,19.1,0000.0,0012.19,0004.50,0003.01
